Theta_e
340 335 330 328 327 321 323 321 326 322 321 319 319 317 317 314 312 312 312 312 312 311
335 327 325 329 328 323 322 320 320 319 318 317 317 316 313 312 313 313 313 312 312 311
329 329 329 327 324 323 321 320 318 317 316 316 314 311 313 313 314 313 312 312 312 312
327 327 326 323 321 318 319 317 316 315 314 312 310 314 313 313 313 311 311 312 311 311
328 325 323 319 318 318 315 315 314 313 310 309 309 313 312 312 312 311 310 310 311 310
322 320 317 318 317 314 314 310 309 309 310 308 310 312 312 313 311 311 311 311 311 311
319 317 317 316 315 313 313 312 312 310 308 309 312 312 311 312 311 309 309 309 309 310
318 316 315 314 314 313 312 311 310 310 310 312 313 306 307 308 308 308 308 309 310 312
315 313 313 313 311 311 311 312 313 312 313 313 309 302 303 307 308 309 309 309 312 313
313 311 312 312 311 311 311 313 313 313 312 311 310 302 302 305 309 310 311 312 308 309
311 311 311 311 310 311 313 312 313 313 313 313 306 301 300 303 310 313 312 311 309 307
312 310 311 311 311 313 313 313 314 314 313 312 310 300 300 304 315 312 312 310 308 307
312 312 311 311 312 313 314 314 314 313 313 309 312 301 299 303 313 313 311 308 308 304
313 314 313 314 315 315 315 314 314 313 313 312 308 307 300 301 314 313 312 310 308 306
Wind_Speed
3 3 4 5 5 3 5 6 4 5 6 6 5 6 4 4 5 5 5 6 5 4
6 6 4 7 5 5 6 7 7 7 6 7 5 5 5 6 6 6 6 6 5 4
5 4 4 5 8 8 7 8 9 8 7 6 7 7 7 5 7 6 5 4 6 5
6 5 8 7 8 7 8 10 10 8 7 8 9 7 6 6 6 6 7 5 5 7
7 7 7 8 7 9 8 8 8 9 9 8 8 9 7 6 5 6 6 5 4 4
7 7 10 8 9 7 8 8 7 6 7 8 9 10 7 4 5 6 7 7 6 5
10 9 10 9 8 8 8 8 7 7 4 7 10 6 8 7 5 6 6 6 7 7
11 12 11 10 9 9 7 6 5 6 6 6 4 7 8 8 6 6 6 8 8 6
11 8 7 8 10 8 9 9 7 7 5 5 6 11 11 8 6 6 7 7 9 10
8 9 10 9 9 8 8 7 9 6 5 9 8 12 10 11 5 7 4 7 8 9
9 9 8 8 8 7 6 5 6 6 6 7 8 11 10 12 6 3 9 11 9 10
11 8 7 8 8 8 7 6 6 6 7 7 7 12 13 12 5 11 11 11 10 11
8 8 6 5 5 6 4 5 4 5 7 9 8 13 13 10 3 9 9 9 10 14
8 7 8 7 5 5 5 4 5 5 6 9 8 10 13 15 6 6 7 8 7 6
Wind_Direction
38 14 350 359 5 312 320 339 358 360 340 349 333 305 325 310 284 271 271 280 275 259
61 31 12 3 327 346 332 330 356 330 360 337 312 337 306 277 285 287 280 269 262 249
75 36 357 356 349 336 359 347 340 351 335 326 333 302 283 292 287 290 274 264 266 261
23 6 24 352 358 17 351 353 347 338 342 338 310 297 303 289 288 287 282 282 253 260
35 21 7 32 12 12 359 345 342 354 343 321 307 311 301 305 300 301 310 316 305 278
38 24 50 22 11 358 359 353 348 315 341 320 302 302 299 353 353 356 337 334 316 298
38 46 28 8 353 342 330 324 320 331 317 297 302 334 358 26 8 355 344 320 301 290
36 28 6 359 359 4 358 357 349 316 295 296 344 24 359 356 334 335 321 309 305 305
24 358 26 358 14 359 358 359 358 334 357 26 43 12 5 358 328 323 323 344 15 15
343 30 17 359 357 7 1 346 356 26 6 53 30 6 359 329 314 298 311 35 37 41
32 25 5 350 11 9 350 5 349 16 40 54 34 4 342 331 318 48 65 69 56 63
30 15 1 6 349 11 351 7 20 39 41 46 39 360 351 354 16 75 67 68 62 70
26 2 16 343 11 354 1 14 36 43 54 33 37 10 356 7 53 86 86 76 74 68
20 358 2 352 343 21 352 31 39 44 59 58 30 28 14 20 44 87 90 92 83 91